Location: El Álamo
(40.2307°N, 3.9945°W)
Time: 04:33:48
(UTC+00:00)

Cosmos 2218 Rocket - Pass Details

Date: 19 May 2025
Orbit: 954 x 1006 km, 82.9° (Epoch: 23 June)

Event Time Altitude Azimuth Distance (km) Brightness Sun altitude
Rises 22:19:54 0° 348° (NNW) 3,729 8.3 -24.3°
Reaches altitude 10° 22:22:29 10° 345° (NNW) 2,770 7.4 -24.6°
Maximum altitude 22:28:41 59° 268° (W) 1,128 4.4 -25.1°
Enters shadow 22:30:49 40° 210° (SSW) 1,416 4.5 -25.3°
